Dewpoint
-6 2 5 7 7 8 8 8 7 6 10 9 9 9 10 11 10 10 10 10 10 10 10 9 9 5 1 3 5 6 6 6 7 7 7 7 7 7 6 3 2 0 0
-5 1 5 7 7 8 8 8 7 5 10 10 10 9 9 11 10 11 10 10 10 10 10 9 9 3 -0 2 3 4 5 6 7 7 7 8 7 7 7 6 5 3 2
-5 0 2 5 6 8 8 8 7 5 9 11 10 9 9 10 10 10 10 10 9 8 8 9 9 3 -3 -3 1 4 4 6 7 7 7 7 7 7 7 7 7 7 6
-3 -0 3 4 6 7 8 8 7 6 6 11 9 9 9 10 10 10 10 10 10 10 9 8 8 7 -1 -4 -5 1 1 6 6 7 7 6 6 7 7 7 7 7 7
-3 -1 -1 1 5 6 7 8 8 7 4 11 9 9 9 9 10 9 9 10 10 10 10 9 7 9 7 -1 -8 -8 -1 6 6 6 7 7 6 6 4 -1 -1 -0 3
-4 2 5 6 6 6 8 8 8 7 3 8 10 9 9 9 9 9 9 9 10 10 10 9 9 8 8 3 -5 -5 -2 6 5 4 4 6 7 6 2 0 -1 1 3
-5 -3 5 6 6 6 7 8 7 7 2 5 9 10 9 9 9 9 9 9 9 9 9 10 9 8 9 6 -1 4 2 2 5 5 6 6 6 5 -0 1 2 3 2
-5 -3 -0 4 5 7 7 7 7 7 4 3 8 9 9 9 8 7 8 8 8 8 9 9 9 8 8 8 6 1 5 5 5 5 6 6 5 5 3 2 3 2 2
-4 -2 3 5 6 7 7 7 8 8 5 3 5 8 8 9 8 8 8 8 8 8 8 9 9 9 8 9 8 7 5 6 6 6 7 6 5 5 4 3 2 3 3
4 5 8 9 9 9 9 8 8 8 6 5 4 5 7 8 8 8 8 8 8 8 9 9 9 9 8 8 8 8 7 7 7 7 8 7 6 6 6 3 4 4 4
8 8 10 10 10 10 10 9 8 8 8 7 6 6 6 7 8 8 8 8 9 9 9 9 9 9 8 8 9 9 8 7 6 7 7 7 5 5 4 2 3 3 3
8 9 10 10 10 10 10 10 9 8 8 8 8 8 7 6 6 7 8 8 8 8 8 9 9 8 8 7 7 7 8 8 8 7 6 6 5 5 3 3 3 2 2
5 7 8 8 9 9 9 10 10 10 10 10 9 9 9 8 7 6 6 7 7 7 8 8 8 9 8 8 7 7 7 7 7 6 5 5 5 4 4 5 5 2 2
3 5 6 6 8 9 9 9 9 9 9 9 10 9 10 10 9 8 8 7 6 7 7 7 7 7 7 8 8 7 7 7 7 6 5 5 4 4 3 3 3 3 3
-0 1 3 4 5 7 7 8 8 9 9 9 8 9 9 9 9 9 9 9 8 8 7 7 7 7 8 8 8 8 8 6 6 6 5 4 4 3 3 3 3 3 3
-0 -1 -1 -1 1 2 3 4 6 7 8 8 8 8 8 8 8 8 8 8 9 9 9 9 9 9 9 8 8 8 8 8 8 7 6 5 5 4 3 3 3 4 6
-0 -1 -1 -1 -1 -2 -2 -2 -1 0 2 4 6 7 7 8 8 8 8 8 8 8 8 8 8 8 8 8 9 9 9 8 8 8 8 8 8 7 7 7 7 7 7
1 1 -0 -1 -1 -1 -2 -2 -2 -3 -3 -3 -3 -2 -1 1 3 6 7 7 7 8 8 8 8 8 8 8 8 8 8 8 8 8 8 8 8 8 8 8 8 8 8
1 0 -1 -1 -2 -2 -2 -2 -2 -3 -3 -3 -3 -4 -4 -3 -2 -1 -0 1 3 5 6 7 7 7 7 8 8 8 8 8 8 8 8 8 8 8 8 8 8 8 7
-0 -1 -1 -2 -2 -2 -3 -3 -3 -3 -4 -3 -3 -3 -3 -3 -3 -3 -2 -1 0 1 2 2 3 3 4 5 5 6 6 7 7 7 7 7 7 7 8 8 7 8 7
-2 -3 -2 -2 -3 -3 -4 -4 -4 -4 -4 -4 -4 -4 -4 -4 -3 -3 -2 -1 0 1 1 1 1 1 2 2 3 3 4 5 5 6 5 6 6 7 7 7 7 6 5
-3 -3 -3 -4 -4 -4 -4 -4 -4 -4 -4 -5 -5 -5 -5 -4 -4 -3 -3 -2 -2 -1 -1 -1 -0 -1 -1 -2 -2 -1 0 1 3 2 1 -0 -1 -0 2 3 3 3 2
-4 -4 -4 -4 -4 -5 -4 -5 -5 -5 -5 -5 -5 -6 -6 -6 -6 -5 -5 -4 -4 -4 -4 -4 -4 -4 -5 -5 -5 -4 -3 -2 -1 -3 -4 -4 -3 -3 -3 -3 -4 -4 -4
-6 -6 -6 -6 -6 -6 -6 -6 -6 -6 -6 -6 -6 -6 -6 -7 -7 -7 -7 -7 -7 -7 -7 -8 -8 -7 -7 -6 -6 -6 -5 -5 -5 -5 -5 -6 -6 -7 -7 -6 -6 -7 -7
-7 -6 -7 -7 -6 -6 -6 -7 -7 -7 -7 -7 -7 -7 -7 -7 -7 -7 -8 -8 -8 -8 -8 -8 -7 -7 -7 -7 -7 -7 -7 -7 -7 -7 -7 -7 -7 -7 -8 -8 -9 -9 -9
-7 -7 -7 -7 -7 -7 -7 -7 -7 -7 -7 -8 -8 -8 -8 -8 -8 -8 -8 -8 -8 -8 -8 -8 -8 -8 -8 -7 -7 -7 -7 -7 -6 -7 -7 -8 -8 -8 -9 -9 -9 -9 -10
Wind_Speed
27 41 42 34 30 27 24 20 18 17 19 20 20 19 15 16 15 11 11 25 43 43 34 34 36 36 42 44 43 40 36 29 26 25 24 21 18 16 14 13 15 16 17
29 35 40 36 33 32 27 23 19 17 20 20 19 19 18 17 14 14 16 20 20 27 25 30 33 36 37 40 42 42 39 33 29 30 26 21 20 20 18 15 15 15 15
32 36 36 36 37 37 31 25 20 17 19 21 19 18 18 17 15 16 22 24 28 28 32 31 33 33 37 40 43 46 46 42 33 30 22 14 10 22 20 18 17 17 17
28 32 34 36 41 38 33 26 21 18 18 23 20 19 18 20 20 20 21 25 31 27 33 35 37 31 34 35 40 43 43 41 37 31 30 24 14 17 13 21 20 20 22
16 28 34 37 41 38 33 28 22 18 19 22 22 20 21 18 18 19 21 27 28 30 27 33 36 36 36 37 37 39 45 39 38 36 31 27 23 18 16 15 17 24 28
13 21 28 34 38 37 33 30 25 19 18 21 23 24 22 23 22 21 22 25 26 30 31 28 38 33 34 37 37 35 40 42 37 35 34 33 30 25 21 22 28 29 22
13 24 32 36 40 39 35 32 26 20 18 19 21 23 23 24 23 23 25 23 24 28 33 35 34 32 31 36 37 39 36 39 40 37 36 35 33 30 26 25 21 24 30
17 27 32 37 41 39 36 32 27 21 17 16 17 19 19 19 18 16 17 20 22 28 24 37 36 34 33 35 41 39 40 39 38 36 41 40 38 36 30 25 31 28 38
17 28 33 35 39 39 36 32 26 20 16 14 15 16 16 17 14 12 12 13 17 19 24 26 38 34 34 32 37 41 44 47 45 43 44 42 40 42 37 32 42 35 34
2 16 24 27 30 31 32 30 23 16 13 11 11 11 13 14 15 14 13 13 15 19 21 21 33 33 32 31 35 38 39 39 43 44 40 45 40 42 42 36 48 42 39
12 11 15 19 21 24 25 24 20 16 14 10 10 10 10 12 13 16 14 14 15 18 22 23 28 29 31 32 34 35 38 41 44 43 41 45 40 38 44 50 51 48 45
26 21 16 16 17 17 16 15 14 13 11 9 8 9 8 10 11 15 15 15 15 16 21 26 28 29 30 30 32 33 35 38 38 38 41 47 46 47 48 52 52 52 51
28 31 31 28 24 18 13 10 10 11 11 11 11 10 10 8 10 9 13 17 18 19 22 24 29 31 31 33 37 39 39 41 43 44 47 49 49 51 52 54 56 54 55
26 30 30 29 27 23 18 14 10 9 10 9 10 12 12 11 11 12 13 14 15 20 25 28 32 34 36 39 41 43 44 46 49 49 50 52 53 56 57 58 59 60 59
24 28 29 27 26 23 19 15 10 6 4 13 16 15 16 13 13 13 14 17 20 22 24 26 29 33 36 40 42 43 46 51 52 53 56 58 59 61 61 61 62 62 63
17 21 24 25 24 20 17 15 11 7 9 9 8 9 10 14 15 16 19 19 20 19 22 27 31 33 34 36 36 38 44 48 50 54 57 61 63 65 66 65 65 65 58
14 17 20 22 18 19 18 15 13 10 8 6 6 7 6 7 9 13 16 18 21 24 27 28 31 35 35 36 36 36 41 44 45 47 50 55 61 64 65 65 64 63 63
12 14 15 17 14 15 13 12 10 10 9 9 7 6 3 2 7 11 13 15 17 20 22 26 28 28 29 33 36 41 43 46 48 50 50 53 52 54 56 58 59 59 58
12 12 11 11 11 11 13 11 10 10 9 10 10 10 8 6 4 3 5 8 11 15 18 21 24 26 30 37 38 40 38 43 48 49 51 56 59 58 56 56 56 57 54
12 10 9 9 7 12 9 8 10 10 10 13 13 12 9 8 8 9 9 7 7 8 9 11 15 19 22 28 34 38 39 38 38 34 39 47 52 55 56 59 58 59 53
7 8 7 7 9 9 9 10 11 12 14 13 14 13 13 12 12 10 8 8 8 8 9 9 10 12 15 19 24 26 26 26 27 29 33 33 44 49 50 55 55 49 44
6 8 8 10 10 10 10 11 11 12 11 12 13 14 14 14 14 13 12 12 11 9 10 10 12 15 17 20 23 22 17 12 11 11 11 13 18 22 27 24 24 26 26
8 8 9 10 11 11 10 10 12 10 10 10 12 15 16 17 18 17 16 17 18 18 18 17 17 17 18 19 22 20 16 9 6 4 5 9 11 9 5 6 9 13 15
8 9 10 13 14 13 12 13 12 11 11 12 14 14 16 18 19 20 21 21 23 23 23 24 25 25 26 26 23 20 18 16 14 12 12 14 19 21 21 19 20 20 18
9 10 11 13 15 14 14 13 13 12 13 14 16 17 18 19 20 23 24 25 25 23 24 25 24 24 26 25 22 20 20 19 18 17 18 20 21 22 22 22 21 20 17
11 13 14 15 17 17 16 15 14 12 13 15 16 16 16 17 17 18 18 19 18 17 19 20 20 19 18 15 16 15 14 13 12 12 18 19 19 19 18 17 16 15 13
Wind_Direction
247 235 234 228 222 217 217 221 230 222 204 195 205 213 211 204 211 214 215 209 205 204 201 202 201 200 196 196 197 198 195 189 192 187 187 198 202 205 214 214 215 214 213
239 233 232 224 221 217 215 220 230 224 211 204 207 217 212 201 206 192 196 181 186 187 201 198 200 201 196 196 197 199 194 195 194 189 187 191 202 209 214 217 222 221 221
226 223 224 219 215 214 215 217 226 226 212 203 211 219 206 209 211 203 203 189 180 188 199 199 204 203 200 200 200 200 203 198 191 197 192 170 198 207 214 216 228 233 233
221 222 220 216 214 215 213 215 221 225 217 206 209 226 216 206 211 204 206 211 205 201 203 200 206 207 206 208 206 205 207 207 197 196 208 211 211 192 205 218 230 243 248
220 224 224 222 215 213 211 211 215 223 225 209 211 219 221 223 218 224 217 221 222 221 219 212 204 209 209 209 209 207 205 208 213 209 207 214 217 216 211 203 232 240 254
228 234 226 216 214 213 209 209 212 220 228 218 213 215 220 223 228 230 236 242 234 229 225 223 209 206 211 208 212 210 209 208 219 228 225 220 218 219 232 230 222 250 255
258 233 225 213 213 213 206 209 210 218 224 223 220 220 220 225 235 240 243 243 242 231 233 226 219 215 215 209 211 213 210 220 222 228 230 229 229 229 227 232 228 247 253
242 224 223 217 213 211 207 208 211 213 217 224 227 225 227 229 232 228 230 233 232 231 232 225 221 224 222 220 216 218 218 215 227 230 233 232 234 233 228 239 254 247 255
243 224 220 215 210 207 206 206 208 211 215 221 225 231 228 229 227 228 230 237 227 225 228 230 225 226 226 226 220 220 223 226 229 232 233 233 233 237 236 238 244 255 248
164 193 205 204 202 199 199 203 207 213 217 221 222 224 225 235 241 238 234 232 225 227 237 236 222 228 230 230 227 226 229 231 232 241 242 233 237 240 243 243 253 255 257
104 149 169 171 175 184 192 198 200 210 215 222 220 226 230 236 239 244 248 247 236 220 229 226 226 229 231 233 240 227 233 234 239 240 249 228 231 239 244 239 255 253 254
76 103 135 154 163 173 182 194 200 212 225 235 230 232 232 236 247 241 244 249 246 235 230 231 228 230 233 235 241 242 242 241 242 240 236 234 238 247 246 250 258 255 257
64 86 101 108 123 131 138 157 185 216 231 239 242 247 253 252 249 250 242 239 243 245 238 236 237 242 248 250 247 247 249 249 249 249 246 246 248 249 250 255 257 259 261
64 82 95 99 108 116 126 134 160 199 221 230 236 246 255 260 260 257 254 253 248 243 244 246 248 249 255 257 257 257 257 255 255 256 255 254 254 255 256 257 259 262 264
56 71 83 88 95 103 110 116 115 117 198 214 213 227 238 249 261 267 265 260 253 251 251 251 252 254 256 256 255 255 255 254 256 257 258 258 258 260 260 261 263 264 264
58 68 76 84 90 94 98 99 109 118 128 155 176 209 233 234 236 241 246 253 264 269 267 263 261 261 263 266 266 265 263 262 262 261 261 261 262 262 262 264 264 264 259
80 71 72 77 82 82 86 92 101 108 127 146 159 176 195 220 235 240 246 249 248 249 252 257 265 272 280 286 286 282 270 265 266 267 268 267 265 265 266 266 266 266 266
67 56 61 70 71 79 81 82 81 74 76 85 89 91 103 212 234 239 240 243 247 253 254 254 254 254 256 257 258 261 263 268 271 269 270 271 273 272 269 270 271 272 271
93 74 70 74 58 70 63 58 57 54 45 41 36 30 20 14 8 318 281 266 261 258 258 259 261 261 260 261 262 264 264 265 267 272 273 272 273 278 277 272 269 272 264
96 89 67 73 71 65 57 54 51 39 34 28 22 20 17 12 4 352 344 337 320 306 299 298 289 286 282 279 275 273 274 273 272 272 265 259 259 263 267 265 264 266 257
90 83 87 74 62 58 51 48 48 41 37 30 23 18 19 20 24 22 18 18 8 355 344 341 337 332 329 320 311 305 299 295 287 274 264 259 259 259 258 258 257 256 257
86 72 68 60 55 51 50 46 47 47 39 34 33 33 33 35 38 38 39 43 47 41 28 14 9 1 356 355 355 357 353 342 304 276 266 273 295 306 287 281 276 276 253
75 65 61 58 51 48 53 56 56 56 55 53 54 54 54 55 56 58 59 58 53 51 50 45 38 33 28 23 22 23 27 32 14 45 52 6 1 8 31 130 147 144 143
76 73 68 67 67 61 58 58 54 58 63 67 66 64 63 61 62 64 64 65 63 62 63 61 60 59 55 48 40 40 45 56 66 71 73 77 79 84 94 101 100 99 102
83 81 75 74 73 72 70 70 69 68 75 74 74 72 68 69 67 66 65 67 69 69 69 65 63 59 55 50 53 56 60 62 69 81 88 84 80 76 74 75 76 77 75
91 91 89 86 82 79 77 72 71 75 79 85 83 78 77 75 74 77 78 79 78 72 70 67 61 63 61 53 48 48 58 68 74 76 77 81 79 73 69 63 60 57 52
Height
1405 1411 1414 1420 1426 1430 1431 1434 1435 1437 1439 1442 1445 1447 1449 1453 1456 1458 1459 1458 1464 1469 1480 1487 1494 1500 1506 1512 1517 1524 1529 1532 1536 1540 1544 1548 1551 1553 1556 1558 1560 1562 1564
1399 1403 1407 1413 1419 1424 1427 1430 1431 1433 1436 1439 1442 1444 1448 1451 1455 1458 1460 1462 1466 1470 1478 1486 1493 1499 1504 1511 1516 1521 1526 1530 1534 1536 1542 1546 1550 1551 1554 1556 1559 1561 1564
1391 1396 1400 1405 1412 1417 1421 1426 1428 1430 1433 1437 1440 1443 1446 1450 1454 1457 1461 1464 1467 1473 1479 1485 1491 1497 1502 1507 1512 1518 1522 1523 1530 1534 1537 1542 1544 1548 1550 1553 1557 1560 1561
1385 1389 1394 1400 1404 1411 1417 1423 1425 1427 1430 1434 1439 1441 1444 1447 1452 1456 1461 1464 1468 1472 1476 1482 1487 1495 1500 1505 1510 1516 1521 1523 1525 1531 1535 1538 1541 1543 1547 1549 1553 1556 1558
1377 1382 1386 1392 1399 1406 1412 1419 1423 1425 1427 1431 1436 1440 1443 1446 1450 1455 1460 1463 1465 1469 1473 1478 1484 1490 1495 1502 1507 1512 1517 1521 1524 1526 1531 1534 1538 1540 1543 1544 1549 1553 1554
1374 1380 1387 1391 1396 1402 1409 1415 1420 1423 1425 1429 1433 1436 1440 1444 1448 1452 1456 1460 1461 1464 1470 1475 1478 1485 1492 1498 1503 1509 1514 1519 1522 1525 1528 1530 1534 1536 1539 1540 1542 1548 1549
1374 1377 1380 1384 1390 1395 1404 1410 1416 1420 1424 1427 1431 1435 1439 1443 1446 1449 1452 1455 1458 1461 1466 1471 1476 1482 1487 1493 1500 1505 1510 1515 1518 1521 1525 1527 1530 1533 1536 1539 1540 1542 1543
1369 1371 1373 1376 1382 1390 1399 1406 1412 1418 1423 1426 1429 1434 1437 1440 1442 1445 1448 1451 1455 1459 1463 1467 1473 1477 1483 1488 1494 1499 1505 1509 1513 1517 1520 1523 1526 1529 1531 1533 1538 1538 1537
1364 1366 1369 1373 1378 1386 1395 1404 1410 1417 1421 1425 1428 1431 1434 1437 1440 1444 1446 1449 1452 1456 1460 1464 1467 1473 1478 1483 1488 1493 1498 1503 1507 1510 1512 1516 1519 1523 1525 1527 1529 1530 1529
1360 1363 1369 1374 1381 1388 1396 1404 1410 1415 1420 1424 1427 1430 1433 1435 1438 1441 1445 1448 1451 1454 1457 1461 1465 1471 1475 1479 1483 1487 1491 1495 1499 1503 1505 1509 1512 1515 1517 1520 1521 1522 1522
1367 1368 1372 1378 1384 1390 1396 1403 1409 1414 1419 1422 1425 1428 1431 1434 1437 1439 1442 1445 1448 1451 1454 1458 1463 1468 1473 1477 1478 1481 1486 1489 1492 1495 1497 1500 1505 1508 1510 1511 1513 1514 1515
1375 1375 1378 1382 1387 1393 1399 1405 1409 1415 1419 1422 1424 1427 1429 1432 1434 1436 1439 1442 1446 1450 1453 1456 1460 1464 1468 1472 1476 1479 1482 1483 1486 1488 1490 1492 1497 1497 1499 1501 1502 1503 1504
1383 1381 1381 1384 1389 1395 1402 1406 1409 1413 1417 1421 1423 1425 1427 1429 1432 1434 1437 1440 1443 1446 1450 1453 1457 1460 1463 1466 1468 1471 1474 1476 1479 1481 1483 1485 1489 1488 1490 1492 1492 1493 1494
1391 1387 1387 1389 1391 1395 1402 1405 1409 1414 1416 1419 1422 1424 1425 1427 1430 1432 1435 1438 1440 1443 1446 1449 1452 1455 1457 1459 1462 1463 1465 1467 1468 1471 1473 1475 1477 1477 1481 1481 1481 1482 1483
1399 1396 1396 1396 1397 1401 1405 1408 1411 1414 1415 1416 1418 1420 1422 1424 1426 1429 1432 1434 1436 1439 1441 1443 1445 1448 1449 1450 1453 1455 1456 1457 1459 1461 1462 1463 1465 1466 1467 1470 1469 1470 1470
1410 1406 1403 1404 1406 1409 1411 1409 1413 1419 1417 1418 1418 1419 1420 1422 1423 1424 1426 1428 1430 1432 1435 1436 1437 1439 1440 1442 1445 1446 1447 1449 1449 1449 1450 1451 1452 1452 1451 1452 1454 1456 1456
1415 1412 1409 1408 1414 1412 1413 1415 1417 1420 1419 1419 1418 1417 1418 1420 1421 1422 1423 1424 1425 1426 1427 1429 1430 1431 1433 1434 1435 1436 1436 1437 1437 1437 1437 1437 1436 1436 1435 1436 1438 1440 1442
1413 1412 1411 1412 1417 1413 1416 1418 1419 1419 1418 1417 1417 1415 1415 1417 1418 1418 1419 1419 1419 1420 1422 1423 1422 1423 1423 1421 1422 1423 1424 1423 1423 1424 1424 1425 1423 1422 1423 1423 1422 1422 1424
1415 1415 1418 1416 1418 1417 1415 1417 1417 1416 1417 1417 1415 1413 1413 1414 1414 1414 1414 1413 1413 1413 1413 1414 1414 1414 1414 1411 1412 1411 1412 1412 1412 1413 1414 1412 1409 1410 1411 1411 1410 1409 1410
1417 1419 1419 1420 1422 1413 1417 1418 1416 1416 1416 1415 1413 1413 1413 1413 1411 1410 1410 1409 1408 1409 1408 1408 1407 1406 1405 1402 1401 1400 1401 1402 1403 1405 1400 1398 1394 1395 1399 1399 1398 1396 1394
1419 1420 1420 1418 1415 1417 1417 1416 1415 1416 1416 1415 1414 1414 1412 1410 1409 1409 1410 1409 1407 1407 1406 1404 1404 1403 1400 1398 1395 1395 1394 1393 1392 1392 1390 1386 1381 1384 1388 1385 1384 1384 1381
1420 1420 1418 1418 1418 1417 1417 1417 1416 1418 1417 1417 1415 1415 1413 1412 1410 1409 1409 1407 1407 1406 1405 1405 1403 1401 1398 1396 1391 1388 1387 1386 1385 1383 1382 1380 1376 1375 1376 1376 1374 1374 1374
1423 1423 1422 1421 1421 1420 1420 1421 1421 1421 1419 1419 1418 1417 1417 1415 1412 1411 1409 1407 1406 1405 1405 1404 1403 1402 1401 1397 1393 1390 1386 1384 1382 1382 1382 1382 1380 1376 1374 1373 1374 1374 1375
1429 1428 1428 1426 1425 1425 1424 1424 1424 1424 1422 1420 1421 1420 1418 1418 1417 1415 1413 1411 1409 1409 1408 1408 1407 1405 1403 1401 1400 1396 1393 1389 1387 1385 1385 1385 1385 1384 1383 1384 1381 1384 1384
1432 1431 1432 1430 1429 1429 1429 1429 1429 1429 1427 1425 1424 1423 1423 1423 1423 1421 1420 1418 1417 1417 1415 1412 1410 1409 1406 1405 1404 1403 1402 1399 1397 1394 1392 1391 1391 1391 1393 1393 1392 1389 1393
1437 1436 1437 1435 1433 1432 1432 1433 1433 1432 1431 1429 1429 1429 1428 1429 1429 1428 1426 1424 1423 1421 1418 1417 1417 1416 1413 1412 1411 1410 1408 1406 1405 1403 1399 1395 1393 1395 1397 1398 1397 1395 1398